Regional Weather Roundup
Issued by NWS

Home | Current Version | Previous Version | Text Only | Print | Product List | Glossary Off
Versions: 1 2 3 4 5 6 7 8 9 10 11 12 13 14 15 16 17 18 19 20 21 22 23 24 25 26 27 28 29 30 31 32 33 34 35 36 37 38 39 40 41 42 43 44 45 46 47 48 49 50

000
ASUS43 KIND 300559
RWRIN

WEATHER ROUNDUP FOR INDIANA
NATIONAL WEATHER SERVICE INDIANAPOLIS IN
200 AM EDT SAT MAY 30 2015

NOTE: "FAIR" INDICATES FEW OR NO CLOUDS BELOW 12,000 FEET WITH NO
SIGNIFICANT WEATHER AND/OR OBSTRUCTIONS TO VISIBILITY.

* - STATION DOES NOT REPORT WEATHER SUCH AS PRECIPITATION OR FOG.

+ - STATION NOT QUALITY CONTROLLED BY THE NATIONAL WEATHER SERVICE.
    USE DATA WITH CAUTION...ESPECIALLY DEWPOINT AND RELATIVE
    HUMIDITY OBSERVATIONS.

INZ001>003-010>013-019-020-300700-
NORTHWEST INDIANA

CITY           SKY/WX    TMP DP  RH WIND       PRES   REMARKS
RENSSELAER +   MOCLDY    70  64  83 S7        29.98F

$$

LMZ046-743>745-300700-
SOUTHERN LAKE MICHIGAN

STATION/POSITION TIME  TEMP    WIND        PRES    WAVE
                       AIR SEA DIR/SP/G            HT
                 (UTC) (F)     (DEG/KT/KT) (MB)    (FT)
BURNS HARBOR     0500   70     190/ 12/ 13 1014.9S
MICHIGAN CITY    0500   71     170/ 10/ 12   N/A
5NW MICH CITY    0500   63 56  220/  6/  8   N/A     1

$$

INZ004-005-014>016-021>024-300700-
NORTH CENTRAL INDIANA

CITY           SKY/WX    TMP DP  RH WIND       PRES   REMARKS
GOSHEN         MOCLDY    73  64  73 SW14      29.97F
6HR MIN TEMP:  73; 6HR MAX TEMP:  81;

SOUTH BEND     CLOUDY    71  67  87 SW8       29.97S
6HR MIN TEMP:  71; 6HR MAX TEMP:  82; 6HR PCP:  0.07;


$$

INZ006>009-017-018-025>027-300700-
NORTHEAST INDIANA

CITY           SKY/WX    TMP DP  RH WIND       PRES   REMARKS
ANGOLA *+      CLEAR     72  64  78 SW7       29.98F
FORT WAYNE     PTCLDY    71  64  78 SW10      30.00F
6HR MIN TEMP:  71; 6HR MAX TEMP:  81;


$$

INZ028-029-035-036-043>045-051>053-300700-
WEST CENTRAL INDIANA

CITY           SKY/WX    TMP DP  RH WIND       PRES   REMARKS
CRAWFORDSVL +  PTCLDY    67  61  81 S5        30.00F
6HR MIN TEMP:  67; 6HR MAX TEMP:  78;

GREENCASTLE +  PTCLDY    68  63  83 S6        30.02F
LAFAYETTE      MOCLDY    70  64  81 W5        29.99S
6HR MIN TEMP:  70; 6HR MAX TEMP:  80;

TERRE HAUTE    MOCLDY    69  68  96 SW3       30.01S
6HR MIN TEMP:  69; 6HR MAX TEMP:  81; 6HR PCP:  0.69;


$$

INZ030>032-037>040-046>048-054>057-064-065-300700-
CENTRAL INDIANA

CITY           SKY/WX    TMP DP  RH WIND       PRES   REMARKS
GREENWOOD *+   CLEAR     72  63  73 S8        30.03F
INDIANAPOLIS   PTCLDY    71  64  78 S9        30.00F
6HR MIN TEMP:  70; 6HR MAX TEMP:  80;

-EAGLE CREEK   CLEAR     70  65  84 S3        30.01F
6HR MIN TEMP:  70; 6HR MAX TEMP:  80;

KOKOMO *+      PTCLDY    72  64  78 SW12      30.00F
6HR MIN TEMP:  72; 6HR MAX TEMP:  82;

MT COMFORT *+  CLEAR     70  63  78 S7        30.03F
SHELBYVILLE    CLEAR     72  65  78 S7        30.02F
6HR MIN TEMP:  71; 6HR MAX TEMP:  82;


$$

INZ033-034-041-042-049-050-058-059-300700-
EAST CENTRAL INDIANA

CITY           SKY/WX    TMP DP  RH WIND       PRES   REMARKS
MUNCIE         CLEAR     71  64  78 S6        30.03S
6HR MIN TEMP:  71; 6HR MAX TEMP:  81;


$$

INZ060-061-067>069-081>083-085>088-300700-
SOUTHWEST INDIANA

CITY           SKY/WX    TMP DP  RH WIND       PRES   REMARKS
EVANSVILLE     PTCLDY    72  67  84 SE5       30.03F
6HR MIN TEMP:  70; 6HR MAX TEMP:  80;

HUNTINGBURG *+ CLEAR     72  66  83 S8        30.05S
6HR MIN TEMP:  72; 6HR MAX TEMP:  79;


$$

INZ062-063-066-070>080-084-089>092-300700-
SOUTH CENTRAL AND SOUTHEAST INDIANA

CITY           SKY/WX    TMP DP  RH WIND       PRES   REMARKS
BLOOMINGTON    CLEAR     72  66  81 S9        30.02F
6HR MIN TEMP:  70; 6HR MAX TEMP:  78;

MADISON *+     CLEAR     70  64  83 S7        30.08F
SEYMOUR +      CLEAR     72  64  78 S7        30.04F

$$




USA.gov is the U.S. government's official web portal to all federal, state and local government web resources and services.